EW4423 Weather Reports


Display with metric or nautical units.
time (UTC)temp
F
wind
direction
speed
MPH
gust
MPH
rain 1hr
in
rain 24hr
in
rain mn
in
humidity
%
barometer
mb
20260508233013 80 159 8.0 12.0 0.00 0.00 0.00 61 1008.2
20260508231512 80 163 5.0 10.0 0.00 0.00 0.00 61 1008.2
20260508230011 78 207 7.0 10.0 0.00 0.00 0.00 65 1008.1
20260508224510 77 13 2.0 11.0 0.00 0.00 0.00 66 1007.8
20260508223019 75 123 11.0 17.0 0.00 0.00 0.00 66 1006.0
20260508221508 76 216 1.0 7.0 0.00 0.00 0.00 64 1009.2
20260508220011 77 197 3.0 7.0 0.00 0.00 0.00 62 1009.0
20260508214503 78 213 3.0 7.0 0.00 0.00 0.00 59 1009.3
20260508213008 79 213 3.0 9.0 0.00 0.00 0.00 59 1009.0
20260508211501 80 175 1.0 7.0 0.00 0.00 0.00 59 1009.2
20260508210100 82 150 3.0 9.0 0.00 0.00 0.00 59 1009.1
20260508204617 82 162 3.0 8.0 0.00 0.00 0.00 61 1009.2
20260508203059 81 127 3.0 9.0 0.00 0.00 0.00 61 1009.4
20260508201607 81 106 2.0 9.0 0.00 0.00 0.00 62 1009.3
20260508200101 79 158 5.0 11.0 0.00 0.00 0.00 63 1009.8
20260508194545 78 111 6.0 9.0 0.00 0.00 0.00 65 1009.9
20260508193041 77 154 3.0 10.0 0.00 0.00 0.00 66 1010.5
20260508191540 78 186 5.0 11.0 0.00 0.00 0.00 65 1010.5
20260508190043 77 144 5.0 9.0 0.00 0.00 0.00 66 1010.8
20260508184535 77 161 5.0 11.0 0.00 0.00 0.00 64 1011.0
20260508183036 77 188 5.0 10.0 0.00 0.00 0.00 66 1011.1
20260508181543 76 183 4.0 8.0 0.00 0.00 0.00 66 1011.5
20260508180025 75 227 1.0 9.0 0.00 0.00 0.00 67 1012.0
20260508174528 75 186 3.0 8.0 0.00 0.00 0.00 66 1012.2
20260508173022 75 190 2.0 10.0 0.00 0.00 0.00 68 1012.4
20260508171518 74 186 7.0 10.0 0.00 0.00 0.00 68 1012.6
20260508170019 75 156 6.0 13.0 0.00 0.00 0.00 69 1012.9
20260508164527 74 146 5.0 12.0 0.00 0.00 0.00 70 1013.0
20260508163011 74 196 7.0 13.0 0.00 0.00 0.00 72 1013.2
20260508161509 73 192 6.0 13.0 0.00 0.00 0.00 75 1013.5
20260508160005 72 189 8.0 15.0 0.00 0.00 0.00 76 1013.6
20260508154503 72 158 9.0 12.0 0.00 0.00 0.00 77 1013.7
20260508153105 71 155 9.0 13.0 0.00 0.00 0.00 79 1013.7
20260508151606 70 165 6.0 10.0 0.00 0.00 0.00 79 1013.8
20260508150054 70 161 5.0 11.0 0.00 0.00 0.00 81 1013.8
20260508144552 69 150 9.0 14.0 0.00 0.00 0.00 83 1014.0
20260508143045 67 121 4.0 8.0 0.00 0.00 0.00 86 1013.9
20260508141549 65 78 2.0 8.0 0.00 0.00 0.00 88 1014.3
20260508140040 64 75 5.0 8.0 0.00 0.00 0.00 88 1014.1
20260508134534 62 136 2.0 8.0 0.00 0.00 0.00 88 1014.2
20260508133030 61 103 3.0 7.0 0.00 0.00 0.00 89 1014.4
20260508131528 61 148 4.0 8.0 0.00 0.00 0.00 89 1014.5
20260508130027 60 120 3.0 7.0 0.00 0.00 0.00 90 1014.6
20260508124525 58 105 2.0 4.0 0.00 0.00 0.00 89 1014.9
20260508123028 58 56 2.0 5.0 0.00 0.00 0.00 89 1015.3
20260508121525 58 16 4.0 9.0 0.00 0.00 0.00 89 1015.7
20260508120034 58 341 3.0 5.0 0.00 0.00 0.00 89 1015.3
20260508114522 58 145 0.0 3.0 0.00 0.01 0.00 88 1014.7
20260508113022 57 145 0.0 3.0 0.00 0.01 0.00 88 1014.3
20260508111522 57 138 2.0 7.0 0.00 0.01 0.00 88 1013.8
20260508110021 58 146 1.0 3.0 0.00 0.01 0.00 88 1013.5
20260508104520 58 150 5.0 8.0 0.00 0.01 0.00 88 1013.4
20260508103027 58 138 5.0 8.0 0.00 0.01 0.00 88 1013.6
20260508101523 57 123 3.0 6.0 0.00 0.01 0.00 87 1014.1
20260508100115 57 96 0.0 3.0 0.00 0.01 0.00 86 1014.6
20260508094514 57 95 2.0 4.0 0.00 0.01 0.00 87 1014.8
20260508093014 56 46 1.0 3.0 0.00 0.01 0.00 86 1015.0
20260508091513 56 302 4.0 7.0 0.00 0.01 0.00 87 1015.7
20260508090010 57 121 0.0 1.0 0.00 0.01 0.00 85 1014.5
20260508084508 57 121 2.0 4.0 0.00 0.01 0.00 84 1014.1
20260508083005 57 125 1.0 2.0 0.00 0.01 0.00 83 1014.5
20260508081504 57 125 1.0 3.0 0.00 0.01 0.00 83 1014.5
20260508080003 57 125 2.0 3.0 0.00 0.01 0.00 83 1014.4
20260508074502 57 125 1.0 4.0 0.00 0.01 0.00 82 1014.7
20260508073101 57 126 0.0 0.0 0.00 0.01 0.00 82 1014.8
20260508071558 57 126 0.0 0.0 0.00 0.01 0.00 82 1015.0
20260508070056 58 126 0.0 0.0 0.00 0.01 0.00 81 1015.2
20260508064557 58 126 0.0 0.0 0.00 0.01 0.00 81 1015.1
20260508063052 59 126 0.0 1.0 0.00 0.01 0.00 81 1015.3
20260508061555 59 126 0.0 3.0 0.00 0.01 0.00 80 1015.1
20260508060051 59 126 2.0 4.0 0.00 0.01 0.00 80 1015.1
20260508054548 60 126 1.0 3.0 0.00 0.01 0.00 80 1015.4
20260508053044 60 126 1.0 2.0 0.00 0.01 0.00 80 1015.3
20260508051551 60 126 1.0 4.0 0.00 0.01 0.00 80 1015.4
20260508050040 61 123 2.0 4.0 0.00 0.01 0.00 80 1015.4
20260508044539 61 122 3.0 6.0 0.00 0.01 0.01 80 1015.5
20260508043042 62 105 3.0 6.0 0.00 0.01 0.01 78 1015.4
20260508041538 62 105 2.0 4.0 0.00 0.01 0.01 78 1015.4
20260508040040 62 106 3.0 4.0 0.00 0.01 0.01 78 1015.4
20260508034537 62 107 2.0 4.0 0.00 0.01 0.01 77 1015.3
20260508033036 62 107 2.0 4.0 0.00 0.01 0.01 77 1015.1
20260508031535 63 108 2.0 4.0 0.00 0.01 0.01 77 1015.2
20260508030035 63 108 3.0 4.0 0.00 0.01 0.01 77 1015.1
20260508024544 63 109 4.0 7.0 0.00 0.06 0.01 76 1015.1
20260508023033 63 104 3.0 7.0 0.00 0.06 0.01 76 1014.9
20260508021536 64 92 3.0 4.0 0.00 0.06 0.01 75 1015.1
20260508020034 64 92 3.0 4.0 0.00 0.06 0.01 75 1014.9
20260508014545 65 90 1.0 4.0 0.00 0.06 0.01 74 1015.1
20260508013033 65 77 0.0 0.0 0.00 0.06 0.01 74 1014.9
20260508011538 66 76 0.0 0.0 0.00 0.06 0.01 73 1014.9
20260508010032 67 74 0.0 1.0 0.00 0.06 0.01 73 1015.1
20260508004531 67 72 2.0 4.0 0.00 0.06 0.01 72 1014.6
20260508003050 68 100 3.0 6.0 0.00 0.06 0.01 71 1014.5
20260508001530 69 108 2.0 4.0 0.00 0.06 0.01 70 1014.7
20260508000027 70 110 0.0 3.0 0.00 0.06 0.01 70 1015.0
20260507234526 70 109 0.0 3.0 0.00 0.06 0.01 69 1015.0